Year,Month,Day,Hour,Minute,Value (Times are PST for temperature in C)
2019,03,22,00,00,10.30
2019,03,22,00,01,10.30
2019,03,22,00,02,10.30
2019,03,22,00,03,10.30
2019,03,22,00,04,10.30
2019,03,22,00,05,10.30
2019,03,22,00,06,10.40
2019,03,22,00,07,10.40
2019,03,22,00,08,10.40
2019,03,22,00,09,10.40
2019,03,22,00,10,10.40
2019,03,22,00,11,10.40
2019,03,22,00,12,10.50
2019,03,22,00,13,10.50
2019,03,22,00,14,10.50
2019,03,22,00,15,10.50
2019,03,22,00,16,10.50
2019,03,22,00,17,10.50
2019,03,22,00,18,10.50
2019,03,22,00,19,10.50
2019,03,22,00,20,10.50
2019,03,22,00,21,10.50
2019,03,22,00,22,10.50
2019,03,22,00,23,10.50
2019,03,22,00,24,10.50
2019,03,22,00,25,10.50
2019,03,22,00,26,10.50
2019,03,22,00,27,10.50
2019,03,22,00,28,10.50
2019,03,22,00,29,10.50
2019,03,22,00,30,10.60
2019,03,22,00,31,10.60
2019,03,22,00,32,10.60
2019,03,22,00,33,10.60
2019,03,22,00,34,10.60
2019,03,22,00,35,10.60
2019,03,22,00,36,10.60
2019,03,22,00,37,10.60
2019,03,22,00,38,10.60
2019,03,22,00,39,10.60
2019,03,22,00,40,10.60
2019,03,22,00,41,10.60
2019,03,22,00,42,10.60
2019,03,22,00,43,10.60
2019,03,22,00,44,10.60
2019,03,22,00,45,10.60
2019,03,22,00,46,10.60
2019,03,22,00,47,10.60
2019,03,22,00,48,10.60
2019,03,22,00,49,10.60
2019,03,22,00,50,10.60
2019,03,22,00,51,10.60
2019,03,22,00,52,10.60
2019,03,22,00,53,10.60
2019,03,22,00,54,10.60
2019,03,22,00,55,10.60
2019,03,22,00,56,10.60
2019,03,22,00,57,10.60
2019,03,22,00,58,10.60
2019,03,22,00,59,10.60
2019,03,22,01,00,10.60
2019,03,22,01,01,10.60
2019,03,22,01,02,10.60
2019,03,22,01,03,10.60
2019,03,22,01,04,10.60
2019,03,22,01,05,10.60
2019,03,22,01,06,10.60
2019,03,22,01,07,10.60
2019,03,22,01,08,10.60
2019,03,22,01,09,10.60
2019,03,22,01,10,10.60
2019,03,22,01,11,10.60
2019,03,22,01,12,10.60
2019,03,22,01,13,10.60
2019,03,22,01,14,10.60
2019,03,22,01,15,10.60
2019,03,22,01,16,10.60
2019,03,22,01,17,10.60
2019,03,22,01,18,10.60
2019,03,22,01,19,10.60
2019,03,22,01,20,10.60
2019,03,22,01,21,10.60
2019,03,22,01,22,10.60
2019,03,22,01,23,10.60
2019,03,22,01,24,10.60
2019,03,22,01,25,10.60
2019,03,22,01,26,10.60
2019,03,22,01,27,10.60
2019,03,22,01,28,10.60
2019,03,22,01,29,10.60
2019,03,22,01,30,10.50
2019,03,22,01,31,10.50
2019,03,22,01,32,10.50
2019,03,22,01,33,10.50
2019,03,22,01,34,10.40
2019,03,22,01,35,10.40
2019,03,22,01,36,10.40
2019,03,22,01,37,10.40
2019,03,22,01,38,10.40
2019,03,22,01,39,10.40
2019,03,22,01,40,10.40
2019,03,22,01,41,10.40
2019,03,22,01,42,10.40
2019,03,22,01,43,10.40
2019,03,22,01,44,10.40
2019,03,22,01,45,10.40
2019,03,22,01,46,10.30
2019,03,22,01,47,10.30
2019,03,22,01,48,10.30
2019,03,22,01,49,10.30
2019,03,22,01,50,10.30
2019,03,22,01,51,10.20
2019,03,22,01,52,10.20
2019,03,22,01,53,10.20
2019,03,22,01,54,10.20
2019,03,22,01,55,10.20
2019,03,22,01,56,10.20
2019,03,22,01,57,10.20
2019,03,22,01,58,10.20
2019,03,22,01,59,10.20
2019,03,22,02,00,10.20
2019,03,22,02,01,10.20
2019,03,22,02,02,10.20
2019,03,22,02,03,10.20
2019,03,22,02,04,10.20
2019,03,22,02,05,10.20
2019,03,22,02,06,10.10
2019,03,22,02,07,10.10
2019,03,22,02,08,10.10
2019,03,22,02,09,10.10
2019,03,22,02,10,10.10
2019,03,22,02,11,10.10
2019,03,22,02,12,10.10
2019,03,22,02,13,10.10
2019,03,22,02,14,10.10
2019,03,22,02,15,10.10
2019,03,22,02,16,10.10
2019,03,22,02,17,10.10
2019,03,22,02,18,10.10
2019,03,22,02,19,10.00
2019,03,22,02,20,10.00
2019,03,22,02,21,10.00
2019,03,22,02,22,10.00
2019,03,22,02,23,10.00
2019,03,22,02,24,9.90
2019,03,22,02,25,9.90
2019,03,22,02,26,9.90
2019,03,22,02,27,9.90
2019,03,22,02,28,9.90
2019,03,22,02,29,9.90
2019,03,22,02,30,9.90
2019,03,22,02,31,9.80
2019,03,22,02,32,9.80
2019,03,22,02,33,9.80
2019,03,22,02,34,9.80
2019,03,22,02,35,9.80
2019,03,22,02,36,9.80
2019,03,22,02,37,9.70
2019,03,22,02,38,9.70
2019,03,22,02,39,9.70
2019,03,22,02,40,9.70
2019,03,22,02,41,9.70
2019,03,22,02,42,9.70
2019,03,22,02,43,9.70
2019,03,22,02,44,9.70
2019,03,22,02,45,9.70
2019,03,22,02,46,9.60
2019,03,22,02,47,9.60
2019,03,22,02,48,9.60
2019,03,22,02,49,9.60
2019,03,22,02,50,9.60
2019,03,22,02,51,9.60
2019,03,22,02,52,9.60
2019,03,22,02,53,9.60
2019,03,22,02,54,9.60
2019,03,22,02,55,9.60
2019,03,22,02,56,9.60
2019,03,22,02,57,9.60
2019,03,22,02,58,9.60
2019,03,22,02,59,9.50
2019,03,22,03,00,9.50
2019,03,22,03,01,9.50
2019,03,22,03,02,9.40
2019,03,22,03,03,9.40
2019,03,22,03,04,9.40
2019,03,22,03,05,9.40
2019,03,22,03,06,9.30
2019,03,22,03,07,9.30
2019,03,22,03,08,9.30
2019,03,22,03,09,9.30
2019,03,22,03,10,9.30
2019,03,22,03,11,9.30
2019,03,22,03,12,9.30
2019,03,22,03,13,9.30
2019,03,22,03,14,9.30
2019,03,22,03,15,9.20
2019,03,22,03,16,9.20
2019,03,22,03,17,9.20
2019,03,22,03,18,9.20
2019,03,22,03,19,9.20
2019,03,22,03,20,9.20
2019,03,22,03,21,9.20
2019,03,22,03,22,9.20
2019,03,22,03,23,9.20
2019,03,22,03,24,9.20
2019,03,22,03,25,9.20
2019,03,22,03,26,9.20
2019,03,22,03,27,9.10
2019,03,22,03,28,9.10
2019,03,22,03,29,9.10
2019,03,22,03,30,9.10
2019,03,22,03,31,9.10
2019,03,22,03,32,9.10
2019,03,22,03,33,9.10
2019,03,22,03,34,9.10
2019,03,22,03,35,9.10
2019,03,22,03,36,9.00
2019,03,22,03,37,8.90
2019,03,22,03,38,8.90
2019,03,22,03,39,8.90
2019,03,22,03,40,8.90
2019,03,22,03,41,8.90
2019,03,22,03,42,8.90
2019,03,22,03,43,8.90
2019,03,22,03,44,8.90
2019,03,22,03,45,8.90
2019,03,22,03,46,8.90
2019,03,22,03,47,8.90
2019,03,22,03,48,8.90
2019,03,22,03,49,8.90
2019,03,22,03,50,8.90
2019,03,22,03,51,8.90
2019,03,22,03,52,8.90
2019,03,22,03,53,8.90
2019,03,22,03,54,9.00
2019,03,22,03,55,9.00
2019,03,22,03,56,9.00
2019,03,22,03,57,9.00
2019,03,22,03,58,9.10
2019,03,22,03,59,9.10
2019,03,22,04,00,9.10
2019,03,22,04,01,9.10
2019,03,22,04,02,9.10
2019,03,22,04,03,9.10
2019,03,22,04,04,9.10
2019,03,22,04,05,9.10
2019,03,22,04,06,9.10
2019,03,22,04,07,9.20
2019,03,22,04,08,9.20
2019,03,22,04,09,9.20
2019,03,22,04,10,9.20
2019,03,22,04,11,9.20
2019,03,22,04,12,9.20
2019,03,22,04,13,9.20
2019,03,22,04,14,9.20
2019,03,22,04,15,9.20
2019,03,22,04,16,9.20
2019,03,22,04,17,9.20
2019,03,22,04,18,9.20
2019,03,22,04,19,9.20
2019,03,22,04,20,9.20
2019,03,22,04,21,9.20
2019,03,22,04,22,9.20
2019,03,22,04,23,9.20
2019,03,22,04,24,9.20
2019,03,22,04,25,9.10
2019,03,22,04,26,9.10
2019,03,22,04,27,9.10
2019,03,22,04,28,9.10
2019,03,22,04,29,9.10
2019,03,22,04,30,9.10
2019,03,22,04,31,9.10
2019,03,22,04,32,9.00
2019,03,22,04,33,9.00
2019,03,22,04,34,9.00
2019,03,22,04,35,9.00
2019,03,22,04,36,9.00
2019,03,22,04,37,9.00
2019,03,22,04,38,9.00
2019,03,22,04,39,9.00
2019,03,22,04,40,9.00
2019,03,22,04,41,8.90
2019,03,22,04,42,8.90
2019,03,22,04,43,8.90
2019,03,22,04,44,8.90
2019,03,22,04,45,8.90
2019,03,22,04,46,8.90
2019,03,22,04,47,8.90
2019,03,22,04,48,8.90
2019,03,22,04,49,8.90
2019,03,22,04,50,8.90
2019,03,22,04,51,8.90
2019,03,22,04,52,8.90
2019,03,22,04,53,8.90
2019,03,22,04,54,8.90
2019,03,22,04,55,8.80
2019,03,22,04,56,8.80
2019,03,22,04,57,8.80
2019,03,22,04,58,8.80
2019,03,22,04,59,8.80
2019,03,22,05,00,8.80
2019,03,22,05,01,8.80
2019,03,22,05,02,8.80
2019,03,22,05,03,8.80
2019,03,22,05,04,8.70
2019,03,22,05,05,8.70
2019,03,22,05,06,8.70
2019,03,22,05,07,8.70
2019,03,22,05,08,8.70
2019,03,22,05,09,8.70
2019,03,22,05,10,8.70
2019,03,22,05,11,8.70
2019,03,22,05,12,8.60
2019,03,22,05,13,8.60
2019,03,22,05,14,8.60
2019,03,22,05,15,8.60
2019,03,22,05,16,8.60
2019,03,22,05,17,8.60
2019,03,22,05,18,8.60
2019,03,22,05,19,8.60
2019,03,22,05,20,8.60
2019,03,22,05,21,8.60
2019,03,22,05,22,8.60
2019,03,22,05,23,8.60
2019,03,22,05,24,8.50
2019,03,22,05,25,8.50
2019,03,22,05,26,8.50
2019,03,22,05,27,8.50
2019,03,22,05,28,8.50
2019,03,22,05,29,8.50
2019,03,22,05,30,8.50
2019,03,22,05,31,8.50
2019,03,22,05,32,8.40
2019,03,22,05,33,8.40
2019,03,22,05,34,8.40
2019,03,22,05,35,8.40
2019,03,22,05,36,8.40
2019,03,22,05,37,8.40
2019,03,22,05,38,8.40
2019,03,22,05,39,8.40
2019,03,22,05,40,8.40
2019,03,22,05,41,8.40
2019,03,22,05,42,8.40
2019,03,22,05,43,8.30
2019,03,22,05,44,8.30
2019,03,22,05,45,8.30
2019,03,22,05,46,8.30
2019,03,22,05,47,8.30
2019,03,22,05,48,8.30
2019,03,22,05,49,8.30
2019,03,22,05,50,8.30
2019,03,22,05,51,8.30
2019,03,22,05,52,8.30
2019,03,22,05,53,8.30
2019,03,22,05,54,8.30
2019,03,22,05,55,8.30
2019,03,22,05,56,8.20
2019,03,22,05,57,8.20
2019,03,22,05,58,8.20
2019,03,22,05,59,8.20
2019,03,22,06,00,8.20
2019,03,22,06,01,8.20
2019,03,22,06,02,8.20
2019,03,22,06,03,8.20
2019,03,22,06,04,8.20
2019,03,22,06,05,8.20
2019,03,22,06,06,8.10
2019,03,22,06,07,8.10
2019,03,22,06,08,8.10
2019,03,22,06,09,8.10
2019,03,22,06,10,8.10
2019,03,22,06,11,8.10
2019,03,22,06,12,8.10
2019,03,22,06,13,8.10
2019,03,22,06,14,8.00
2019,03,22,06,15,8.00
2019,03,22,06,16,8.00
2019,03,22,06,17,7.90
2019,03,22,06,18,7.90
2019,03,22,06,19,7.90
2019,03,22,06,20,7.90
2019,03,22,06,21,7.90
2019,03,22,06,22,7.90
2019,03,22,06,23,7.90
2019,03,22,06,24,7.80
2019,03,22,06,25,7.80
2019,03,22,06,26,7.80
2019,03,22,06,27,7.80
2019,03,22,06,28,7.90
2019,03,22,06,29,7.80
2019,03,22,06,30,7.80
2019,03,22,06,31,7.80
2019,03,22,06,32,7.80
2019,03,22,06,33,7.80
2019,03,22,06,34,7.80
2019,03,22,06,35,7.80
2019,03,22,06,36,7.80
2019,03,22,06,37,7.80
2019,03,22,06,38,7.80
2019,03,22,06,39,7.80
2019,03,22,06,40,7.80
2019,03,22,06,41,7.80
2019,03,22,06,42,7.80
2019,03,22,06,43,7.80
2019,03,22,06,44,7.70
2019,03,22,06,45,7.70
2019,03,22,06,46,7.70
2019,03,22,06,47,7.70
2019,03,22,06,48,7.70
2019,03,22,06,49,7.70
2019,03,22,06,50,7.70
2019,03,22,06,51,7.70
2019,03,22,06,52,7.70
2019,03,22,06,53,7.70
2019,03,22,06,54,7.70
2019,03,22,06,55,7.70
2019,03,22,06,56,7.70
2019,03,22,06,57,7.70
2019,03,22,06,58,7.70
2019,03,22,06,59,7.70
2019,03,22,07,00,7.70
2019,03,22,07,01,7.70
2019,03,22,07,02,7.70
2019,03,22,07,03,7.60
2019,03,22,07,04,7.70
2019,03,22,07,05,7.60
2019,03,22,07,06,7.60
2019,03,22,07,07,7.60
2019,03,22,07,08,7.60
2019,03,22,07,09,7.60
2019,03,22,07,10,7.60
2019,03,22,07,11,7.60
2019,03,22,07,12,7.60
2019,03,22,07,13,7.60
2019,03,22,07,14,7.60
2019,03,22,07,15,7.60
2019,03,22,07,16,7.60
2019,03,22,07,17,7.60
2019,03,22,07,18,7.60
2019,03,22,07,19,7.60
2019,03,22,07,20,7.60
2019,03,22,07,21,7.60
2019,03,22,07,22,7.60
2019,03,22,07,23,7.60
2019,03,22,07,24,7.60
2019,03,22,07,25,7.60
2019,03,22,07,26,7.60
2019,03,22,07,27,7.60
2019,03,22,07,28,7.60
2019,03,22,07,29,7.60
2019,03,22,07,30,7.60
2019,03,22,07,31,7.60
2019,03,22,07,32,7.50
2019,03,22,07,33,7.50
2019,03,22,07,34,7.50
2019,03,22,07,35,7.50
2019,03,22,07,36,7.50
2019,03,22,07,37,7.50
2019,03,22,07,38,7.50
2019,03,22,07,39,7.40
2019,03,22,07,40,7.50
2019,03,22,07,41,7.40
2019,03,22,07,42,7.50
2019,03,22,07,43,7.50
2019,03,22,07,44,7.50
2019,03,22,07,45,7.50
2019,03,22,07,46,7.50
2019,03,22,07,47,7.50
2019,03,22,07,48,7.50
2019,03,22,07,49,7.50
2019,03,22,07,50,7.40
2019,03,22,07,51,7.40
2019,03,22,07,52,7.50
2019,03,22,07,53,7.40
2019,03,22,07,54,7.50
2019,03,22,07,55,7.40
2019,03,22,07,56,7.40
2019,03,22,07,57,7.40
2019,03,22,07,58,7.40
2019,03,22,07,59,7.50
2019,03,22,08,00,7.50
2019,03,22,08,01,7.50
2019,03,22,08,02,7.50
2019,03,22,08,03,7.50
2019,03,22,08,04,7.50
2019,03,22,08,05,7.50
2019,03,22,08,06,7.50
2019,03,22,08,07,7.50
2019,03,22,08,08,7.50
2019,03,22,08,09,7.50
2019,03,22,08,10,7.50
2019,03,22,08,11,7.50
2019,03,22,08,12,7.50
2019,03,22,08,13,7.60
2019,03,22,08,14,7.60
2019,03,22,08,15,7.60
2019,03,22,08,16,7.60
2019,03,22,08,17,7.60
2019,03,22,08,18,7.60
2019,03,22,08,19,7.60
2019,03,22,08,20,7.60
2019,03,22,08,21,7.60
2019,03,22,08,22,7.60
2019,03,22,08,23,7.60
2019,03,22,08,24,7.60
2019,03,22,08,25,7.60
2019,03,22,08,26,7.60
2019,03,22,08,27,7.60
2019,03,22,08,28,7.60
2019,03,22,08,29,7.60
2019,03,22,08,30,7.60
2019,03,22,08,31,7.60
2019,03,22,08,32,7.60
2019,03,22,08,33,7.60
2019,03,22,08,34,7.70
2019,03,22,08,35,7.70
2019,03,22,08,36,7.70
2019,03,22,08,37,7.70
2019,03,22,08,38,7.70
2019,03,22,08,39,7.70
2019,03,22,08,40,7.70
2019,03,22,08,41,7.70
2019,03,22,08,42,7.70
2019,03,22,08,43,7.70
2019,03,22,08,44,7.70
2019,03,22,08,45,7.80
2019,03,22,08,46,7.80
2019,03,22,08,47,7.80
2019,03,22,08,48,7.90
2019,03,22,08,49,7.90
2019,03,22,08,50,8.00
2019,03,22,08,51,8.10
2019,03,22,08,52,8.10
2019,03,22,08,53,8.20
2019,03,22,08,54,8.20
2019,03,22,08,55,8.20
2019,03,22,08,56,8.30
2019,03,22,08,57,8.30
2019,03,22,08,58,8.40
2019,03,22,08,59,8.40
2019,03,22,09,00,8.50
2019,03,22,09,01,8.60
2019,03,22,09,02,8.70
2019,03,22,09,03,8.70
2019,03,22,09,04,8.80
2019,03,22,09,05,8.90
2019,03,22,09,06,8.90
2019,03,22,09,07,9.10
2019,03,22,09,08,9.10
2019,03,22,09,09,9.20
2019,03,22,09,10,9.30
2019,03,22,09,11,9.40
2019,03,22,09,12,9.50
2019,03,22,09,13,9.60
2019,03,22,09,14,9.70
2019,03,22,09,15,9.80
2019,03,22,09,16,9.90
2019,03,22,09,17,10.00
2019,03,22,09,18,10.10
2019,03,22,09,19,10.10
2019,03,22,09,20,10.10
2019,03,22,09,21,10.20
2019,03,22,09,22,10.20
2019,03,22,09,23,10.20
2019,03,22,09,24,10.20
2019,03,22,09,25,10.20
2019,03,22,09,26,10.20
2019,03,22,09,27,10.20
2019,03,22,09,28,10.20
2019,03,22,09,29,10.10
2019,03,22,09,30,10.10
2019,03,22,09,31,10.10
2019,03,22,09,32,10.10
2019,03,22,09,33,10.10
2019,03,22,09,34,10.10
2019,03,22,09,35,10.10
2019,03,22,09,36,10.10
2019,03,22,09,37,10.00
2019,03,22,09,38,10.10
2019,03,22,09,39,10.00
2019,03,22,09,40,9.90
2019,03,22,09,41,9.90
2019,03,22,09,42,9.90
2019,03,22,09,43,9.90
2019,03,22,09,44,9.90
2019,03,22,09,45,9.80
2019,03,22,09,46,9.80
2019,03,22,09,47,9.80
2019,03,22,09,48,9.80
2019,03,22,09,49,9.80
2019,03,22,09,50,9.70
2019,03,22,09,51,9.70
2019,03,22,09,52,9.70
2019,03,22,09,53,9.70
2019,03,22,09,54,9.70
2019,03,22,09,55,9.60
2019,03,22,09,56,9.60
2019,03,22,09,57,9.70
2019,03,22,09,58,9.70
2019,03,22,09,59,9.60
2019,03,22,10,00,9.70
2019,03,22,10,01,9.70
2019,03,22,10,02,9.70
2019,03,22,10,03,9.70
2019,03,22,10,04,9.70
2019,03,22,10,05,9.70
2019,03,22,10,06,9.80
2019,03,22,10,07,9.80
2019,03,22,10,08,9.90
2019,03,22,10,09,9.90
2019,03,22,10,10,10.00
2019,03,22,10,11,10.10
2019,03,22,10,12,10.20
2019,03,22,10,13,10.20
2019,03,22,10,14,10.30
2019,03,22,10,15,10.40
2019,03,22,10,16,10.40
2019,03,22,10,17,10.60
2019,03,22,10,18,10.60
2019,03,22,10,19,10.70
2019,03,22,10,20,10.70
2019,03,22,10,21,10.80
2019,03,22,10,22,10.80
2019,03,22,10,23,10.90
2019,03,22,10,24,10.90
2019,03,22,10,25,10.90
2019,03,22,10,26,11.00
2019,03,22,10,27,11.10
2019,03,22,10,28,11.10
2019,03,22,10,29,11.10
2019,03,22,10,30,11.20
2019,03,22,10,31,11.20
2019,03,22,10,32,11.30
2019,03,22,10,33,11.30
2019,03,22,10,34,11.40
2019,03,22,10,35,11.40
2019,03,22,10,36,11.50
2019,03,22,10,37,11.60
2019,03,22,10,38,11.60
2019,03,22,10,39,11.60
2019,03,22,10,40,11.70
2019,03,22,10,41,11.70
2019,03,22,10,42,11.70
2019,03,22,10,43,11.80
2019,03,22,10,44,11.80
2019,03,22,10,45,11.80
2019,03,22,10,46,11.90
2019,03,22,10,47,11.90
2019,03,22,10,48,11.90
2019,03,22,10,49,11.90
2019,03,22,10,50,12.00
2019,03,22,10,51,12.10
2019,03,22,10,52,12.10
2019,03,22,10,53,12.20
2019,03,22,10,54,12.20
2019,03,22,10,55,12.20
2019,03,22,10,56,12.30
2019,03,22,10,57,12.30
2019,03,22,10,58,12.40
2019,03,22,10,59,12.40
2019,03,22,11,00,12.50
2019,03,22,11,01,12.60
2019,03,22,11,02,12.70
2019,03,22,11,03,12.70
2019,03,22,11,04,12.70
2019,03,22,11,05,12.80
2019,03,22,11,06,12.80
2019,03,22,11,07,12.80
2019,03,22,11,08,12.90
2019,03,22,11,09,12.90
2019,03,22,11,10,13.00
2019,03,22,11,11,13.10
2019,03,22,11,12,13.20
2019,03,22,11,13,13.20
2019,03,22,11,14,13.30
2019,03,22,11,15,13.30
2019,03,22,11,16,13.30
2019,03,22,11,17,13.30
2019,03,22,11,18,13.30
2019,03,22,11,19,13.40
2019,03,22,11,20,13.40
2019,03,22,11,21,13.40
2019,03,22,11,22,13.40
2019,03,22,11,23,13.40
2019,03,22,11,24,13.50
2019,03,22,11,25,13.60
2019,03,22,11,26,13.60
2019,03,22,11,27,13.60
2019,03,22,11,28,13.60
2019,03,22,11,29,13.70
2019,03,22,11,30,13.70
2019,03,22,11,31,13.80
2019,03,22,11,32,13.80
2019,03,22,11,33,13.90
2019,03,22,11,34,13.90
2019,03,22,11,35,13.90
2019,03,22,11,36,14.00
2019,03,22,11,37,14.00
2019,03,22,11,38,14.10
2019,03,22,11,39,14.10
2019,03,22,11,40,14.10
2019,03,22,11,41,14.10
2019,03,22,11,42,14.20
2019,03,22,11,43,14.20
2019,03,22,11,44,14.20
2019,03,22,11,45,14.20
2019,03,22,11,46,14.10
2019,03,22,11,47,14.10
2019,03,22,11,48,14.10
2019,03,22,11,49,14.20
2019,03,22,11,50,14.20
2019,03,22,11,51,14.10
2019,03,22,11,52,14.20
2019,03,22,11,53,14.20
2019,03,22,11,54,14.30
2019,03,22,11,55,14.30
2019,03,22,11,56,14.40
2019,03,22,11,57,14.50
2019,03,22,11,58,14.60
2019,03,22,11,59,14.70
2019,03,22,12,00,14.80
2019,03,22,12,01,14.90
2019,03,22,12,02,15.10
2019,03,22,12,03,15.20
2019,03,22,12,04,15.20
2019,03,22,12,05,15.20
2019,03,22,12,06,15.30
2019,03,22,12,07,15.30
2019,03,22,12,08,15.40
2019,03,22,12,09,15.50
2019,03,22,12,10,15.60
2019,03,22,12,11,15.60
2019,03,22,12,12,15.60
2019,03,22,12,13,15.70
2019,03,22,12,14,15.70
2019,03,22,12,15,15.70
2019,03,22,12,16,15.70
2019,03,22,12,17,15.70
2019,03,22,12,18,15.70
2019,03,22,12,19,15.70
2019,03,22,12,20,15.80
2019,03,22,12,21,15.80
2019,03,22,12,22,15.80
2019,03,22,12,23,15.80
2019,03,22,12,24,15.80
2019,03,22,12,25,15.80
2019,03,22,12,26,15.90
2019,03,22,12,27,15.90
2019,03,22,12,28,16.00
2019,03,22,12,29,16.10
2019,03,22,12,30,16.10
2019,03,22,12,31,16.20
2019,03,22,12,32,16.30
2019,03,22,12,33,16.30
2019,03,22,12,34,16.40
2019,03,22,12,35,16.40
2019,03,22,12,36,16.40
2019,03,22,12,37,16.40
2019,03,22,12,38,16.40
2019,03,22,12,39,16.30
2019,03,22,12,40,16.30
2019,03,22,12,41,16.40
2019,03,22,12,42,16.40
2019,03,22,12,43,16.40
2019,03,22,12,44,16.40
2019,03,22,12,45,16.40
2019,03,22,12,46,16.40
2019,03,22,12,47,16.40
2019,03,22,12,48,16.50
2019,03,22,12,49,16.60
2019,03,22,12,50,16.70
2019,03,22,12,51,16.70
2019,03,22,12,52,16.80
2019,03,22,12,53,16.80
2019,03,22,12,54,16.80
2019,03,22,12,55,16.80
2019,03,22,12,56,16.80
2019,03,22,12,57,16.80
2019,03,22,12,58,16.80
2019,03,22,12,59,16.80
2019,03,22,13,00,16.90
2019,03,22,13,01,16.90
2019,03,22,13,02,16.90
2019,03,22,13,03,16.80
2019,03,22,13,04,16.90
2019,03,22,13,05,16.90
2019,03,22,13,06,17.00
2019,03,22,13,07,17.10
2019,03,22,13,08,17.10
2019,03,22,13,09,17.20
2019,03,22,13,10,17.20
2019,03,22,13,11,17.30
2019,03,22,13,12,17.40
2019,03,22,13,13,17.50
2019,03,22,13,14,17.60
2019,03,22,13,15,17.60
2019,03,22,13,16,17.60
2019,03,22,13,17,17.60
2019,03,22,13,18,17.60
2019,03,22,13,19,17.60
2019,03,22,13,20,17.70
2019,03,22,13,21,17.70
2019,03,22,13,22,17.70
2019,03,22,13,23,17.70
2019,03,22,13,24,17.70
2019,03,22,13,25,17.80
2019,03,22,13,26,17.80
2019,03,22,13,27,17.80
2019,03,22,13,28,17.80
2019,03,22,13,29,17.70
2019,03,22,13,30,17.60
2019,03,22,13,31,17.40
2019,03,22,13,32,17.30
2019,03,22,13,33,17.30
2019,03,22,13,34,17.30
2019,03,22,13,35,17.30
2019,03,22,13,36,17.30
2019,03,22,13,37,17.30
2019,03,22,13,38,17.30
2019,03,22,13,39,17.30
2019,03,22,13,40,17.20
2019,03,22,13,41,17.20
2019,03,22,13,42,17.20
2019,03,22,13,43,17.20
2019,03,22,13,44,17.20
2019,03,22,13,45,17.20
2019,03,22,13,46,17.20
2019,03,22,13,47,17.10
2019,03,22,13,48,17.10
2019,03,22,13,49,17.10
2019,03,22,13,50,17.00
2019,03,22,13,51,16.90
2019,03,22,13,52,16.90
2019,03,22,13,53,16.90
2019,03,22,13,54,16.90
2019,03,22,13,55,16.90
2019,03,22,13,56,16.80
2019,03,22,13,57,16.80
2019,03,22,13,58,16.80
2019,03,22,13,59,16.80
2019,03,22,14,00,16.80
2019,03,22,14,01,16.80
2019,03,22,14,02,16.80
2019,03,22,14,03,16.80
2019,03,22,14,04,16.80
2019,03,22,14,05,16.80
2019,03,22,14,06,16.80
2019,03,22,14,07,16.80
2019,03,22,14,08,16.80
2019,03,22,14,09,16.80
2019,03,22,14,10,16.80
2019,03,22,14,11,16.80
2019,03,22,14,12,16.90
2019,03,22,14,13,16.90
2019,03,22,14,14,17.00
2019,03,22,14,15,17.00
2019,03,22,14,16,17.10
2019,03,22,14,17,17.10
2019,03,22,14,18,17.10
2019,03,22,14,19,17.10
2019,03,22,14,20,17.10
2019,03,22,14,21,17.10
2019,03,22,14,22,17.00
2019,03,22,14,23,16.90
2019,03,22,14,24,16.80
2019,03,22,14,25,16.80
2019,03,22,14,26,16.80
2019,03,22,14,27,16.80
2019,03,22,14,28,16.80
2019,03,22,14,29,16.80
2019,03,22,14,30,16.80
2019,03,22,14,31,16.80
2019,03,22,14,32,16.80
2019,03,22,14,33,16.80
2019,03,22,14,34,16.80
2019,03,22,14,35,16.80
2019,03,22,14,36,16.70
2019,03,22,14,37,16.70
2019,03,22,14,38,16.70
2019,03,22,14,39,16.70
2019,03,22,14,40,16.70
2019,03,22,14,41,16.70
2019,03,22,14,42,16.70
2019,03,22,14,43,16.70
2019,03,22,14,44,16.60
2019,03,22,14,45,16.60
2019,03,22,14,46,16.60
2019,03,22,14,47,16.60
2019,03,22,14,48,16.60
2019,03,22,14,49,16.50
2019,03,22,14,50,16.40
2019,03,22,14,51,16.40
2019,03,22,14,52,16.30
2019,03,22,14,53,16.20
2019,03,22,14,54,16.10
2019,03,22,14,55,16.10
2019,03,22,14,56,16.00
2019,03,22,14,57,15.90
2019,03,22,14,58,15.90
2019,03,22,14,59,15.90
2019,03,22,15,00,15.80
2019,03,22,15,01,15.80
2019,03,22,15,02,15.80
2019,03,22,15,03,15.70
2019,03,22,15,04,15.70
2019,03,22,15,05,15.60
2019,03,22,15,06,15.40
2019,03,22,15,07,15.30
2019,03,22,15,08,15.20
2019,03,22,15,09,15.20
2019,03,22,15,10,15.10
2019,03,22,15,11,14.90
2019,03,22,15,12,14.80
2019,03,22,15,13,14.80
2019,03,22,15,14,14.70
2019,03,22,15,15,14.60
2019,03,22,15,16,14.60
2019,03,22,15,17,14.50
2019,03,22,15,18,14.50
2019,03,22,15,19,14.50
2019,03,22,15,20,14.50
2019,03,22,15,21,14.40
2019,03,22,15,22,14.50
2019,03,22,15,23,14.50
2019,03,22,15,24,14.50
2019,03,22,15,25,14.50
2019,03,22,15,26,14.60
2019,03,22,15,27,14.60
2019,03,22,15,28,14.60
2019,03,22,15,29,14.60
2019,03,22,15,30,14.70
2019,03,22,15,31,14.70
2019,03,22,15,32,14.70
2019,03,22,15,33,14.70
2019,03,22,15,34,14.60
2019,03,22,15,35,14.60
2019,03,22,15,36,14.50
2019,03,22,15,37,14.40
2019,03,22,15,38,14.30
2019,03,22,15,39,14.10
2019,03,22,15,40,13.90
2019,03,22,15,41,13.80
2019,03,22,15,42,13.60
2019,03,22,15,43,13.40
2019,03,22,15,44,13.30
2019,03,22,15,45,13.20
2019,03,22,15,46,13.20
2019,03,22,15,47,13.10
2019,03,22,15,48,12.90
2019,03,22,15,49,12.90
2019,03,22,15,50,12.80
2019,03,22,15,51,12.80
2019,03,22,15,52,12.70
2019,03,22,15,53,12.70
2019,03,22,15,54,12.70
2019,03,22,15,55,12.60
2019,03,22,15,56,12.60
2019,03,22,15,57,12.60
2019,03,22,15,58,12.60
2019,03,22,15,59,12.60
2019,03,22,16,00,12.60
2019,03,22,16,01,12.60
2019,03,22,16,02,12.50
2019,03,22,16,03,12.60
2019,03,22,16,04,12.60
2019,03,22,16,05,12.60
2019,03,22,16,06,12.60
2019,03,22,16,07,12.50
2019,03,22,16,08,12.50
2019,03,22,16,09,12.50
2019,03,22,16,10,12.50
2019,03,22,16,11,12.50
2019,03,22,16,12,12.50
2019,03,22,16,13,12.40
2019,03,22,16,14,12.40
2019,03,22,16,15,12.40
2019,03,22,16,16,12.40
2019,03,22,16,17,12.30
2019,03,22,16,18,12.30
2019,03,22,16,19,12.20
2019,03,22,16,20,12.20
2019,03,22,16,21,12.20
2019,03,22,16,22,12.20
2019,03,22,16,23,12.10
2019,03,22,16,24,12.10
2019,03,22,16,26,12.00
2019,03,22,16,27,11.90
2019,03,22,16,28,11.80
2019,03,22,16,29,11.70
2019,03,22,16,30,11.70
2019,03,22,16,31,11.60
2019,03,22,16,32,11.50
2019,03,22,16,33,11.40
2019,03,22,16,34,11.30
2019,03,22,16,35,11.30
2019,03,22,16,36,11.20
2019,03,22,16,37,11.20
2019,03,22,16,38,11.10
2019,03,22,16,39,11.10
2019,03,22,16,40,11.00
2019,03,22,16,41,10.90
2019,03,22,16,42,10.80
2019,03,22,16,43,10.80
2019,03,22,16,44,10.80
2019,03,22,16,45,10.80
2019,03,22,16,46,10.70
2019,03,22,16,47,10.70
2019,03,22,16,48,10.70
2019,03,22,16,49,10.60
2019,03,22,16,50,10.60
2019,03,22,16,51,10.60
2019,03,22,16,52,10.60
2019,03,22,16,53,10.50
2019,03,22,16,54,10.50
2019,03,22,16,55,10.50
2019,03,22,16,56,10.40
2019,03,22,16,57,10.40
2019,03,22,16,58,10.40
2019,03,22,16,59,10.40
2019,03,22,17,00,10.40
2019,03,22,17,01,10.40
2019,03,22,17,02,10.40
2019,03,22,17,03,10.40
2019,03,22,17,04,10.40
2019,03,22,17,05,10.40
2019,03,22,17,06,10.40
2019,03,22,17,07,10.40
2019,03,22,17,08,10.40
2019,03,22,17,09,10.40
2019,03,22,17,10,10.40
2019,03,22,17,11,10.40
2019,03,22,17,12,10.50
2019,03,22,17,13,10.40
2019,03,22,17,14,10.50
2019,03,22,17,15,10.50
2019,03,22,17,16,10.50
2019,03,22,17,17,10.50
2019,03,22,17,18,10.50
2019,03,22,17,19,10.50
2019,03,22,17,20,10.60
2019,03,22,17,21,10.60
2019,03,22,17,22,10.60
2019,03,22,17,23,10.60
2019,03,22,17,24,10.60
2019,03,22,17,25,10.60
2019,03,22,17,26,10.60
2019,03,22,17,27,10.60
2019,03,22,17,28,10.60
2019,03,22,17,29,10.60
2019,03,22,17,30,10.50
2019,03,22,17,31,10.60
2019,03,22,17,32,10.50
2019,03,22,17,33,10.50
2019,03,22,17,34,10.50
2019,03,22,17,35,10.50
2019,03,22,17,36,10.50
2019,03,22,17,37,10.50
2019,03,22,17,38,10.50
2019,03,22,17,39,10.50